TimePDT,TemperatureF,Dew PointF,Humidity,Sea Level PressureIn,VisibilityMPH,Wind Direction,Wind SpeedMPH,Gust SpeedMPH,PrecipitationIn,Events,Conditions,WindDirDegrees,DateUTC
12:56 AM,63.0,57.9,84,30.09,10.0,WNW,3.5,-,N/A,,Clear,290,2013-08-18 07:56:00
1:56 AM,60.1,55.9,86,30.09,10.0,Calm,Calm,-,N/A,,Clear,0,2013-08-18 08:56:00
2:56 AM,60.1,55.9,86,30.09,10.0,Calm,Calm,-,N/A,,Clear,0,2013-08-18 09:56:00
3:56 AM,59.0,55.9,90,30.10,10.0,Calm,Calm,-,N/A,,Clear,0,2013-08-18 10:56:00
4:56 AM,57.9,55.0,90,30.10,10.0,Calm,Calm,-,N/A,,Clear,0,2013-08-18 11:56:00
5:56 AM,57.0,54.0,89,30.11,10.0,Calm,Calm,-,N/A,,Clear,0,2013-08-18 12:56:00
6:34 AM,57.2,53.6,88,30.12,10.0,Calm,Calm,-,N/A,,Mostly Cloudy,0,2013-08-18 13:34:00
6:56 AM,57.0,54.0,89,30.12,10.0,Calm,Calm,-,N/A,,Mostly Cloudy,0,2013-08-18 13:56:00
7:56 AM,61.0,57.0,87,30.13,10.0,NNW,3.5,-,N/A,,Overcast,330,2013-08-18 14:56:00
8:56 AM,64.0,57.0,78,30.13,10.0,Calm,Calm,-,N/A,,Overcast,0,2013-08-18 15:56:00
9:56 AM,68.0,57.9,70,30.13,10.0,Variable,4.6,-,N/A,,Overcast,0,2013-08-18 16:56:00
10:20 AM,69.8,57.2,64,30.13,10.0,Variable,4.6,-,N/A,,Partly Cloudy,0,2013-08-18 17:20:00
10:56 AM,72.0,57.0,59,30.12,10.0,North,8.1,-,N/A,,Clear,360,2013-08-18 17:56:00
11:56 AM,75.0,57.0,53,30.12,10.0,Calm,Calm,-,N/A,,Clear,0,2013-08-18 18:56:00
12:56 PM,77.0,57.0,50,30.11,10.0,Variable,4.6,-,N/A,,Clear,0,2013-08-18 19:56:00
1:56 PM,80.1,55.9,43,30.09,10.0,NW,4.6,-,N/A,,Clear,310,2013-08-18 20:56:00
2:56 PM,82.9,55.0,38,30.08,10.0,Calm,Calm,-,N/A,,Clear,0,2013-08-18 21:56:00
3:56 PM,84.9,55.0,36,30.05,10.0,Variable,5.8,-,N/A,,Clear,0,2013-08-18 22:56:00
4:56 PM,86.0,55.0,35,30.03,10.0,North,10.4,-,N/A,,Clear,360,2013-08-18 23:56:00
5:56 PM,86.0,55.9,36,30.02,10.0,NNE,8.1,-,N/A,,Clear,30,2013-08-19 00:56:00
6:56 PM,84.0,55.9,38,30.01,10.0,NNE,8.1,-,N/A,,Clear,20,2013-08-19 01:56:00
7:56 PM,79.0,57.9,48,30.01,10.0,NW,9.2,-,N/A,,Clear,310,2013-08-19 02:56:00
8:56 PM,75.0,57.0,53,30.03,10.0,NW,9.2,-,N/A,,Clear,320,2013-08-19 03:56:00
9:56 PM,72.0,57.9,61,30.05,10.0,NW,3.5,-,N/A,,Clear,320,2013-08-19 04:56:00
10:56 PM,69.1,57.9,68,30.06,10.0,NNW,5.8,-,N/A,,Clear,340,2013-08-19 05:56:00
11:56 PM,66.9,57.9,73,30.06,10.0,NNW,5.8,-,N/A,,Clear,340,2013-08-19 06:56:00